RH
14 15 15 15 16 15 14 13 13 13 12 11 11 10 10 11 11 11 10 11 11 10 9 9 8 8 7 6 8 9 9 9 8 7 6 7 7 7 6 6 5 5 5 5 4 5 7 9 10 10 9 9 9 10 10 12 11 11 15 16 19 23 19 17 17 15 16 17 18 16 15 16 16 16 16 17 17 18 18 17 16 16 15 15 15 15 16 16
12 13 13 14 14 13 12 11 12 12 11 10 11 10 10 10 10 10 10 10 10 9 9 8 7 7 6 7 8 8 8 9 8 7 6 7 7 6 6 5 5 4 4 5 6 7 8 9 9 9 9 9 10 10 11 12 11 12 15 15 20 22 17 17 17 16 16 17 17 16 15 15 16 16 16 17 17 17 18 17 16 16 16 16 16 15 16 16
8 9 10 11 12 11 10 9 10 11 11 10 10 9 9 9 9 10 9 10 9 9 8 7 7 6 6 7 7 7 8 8 7 7 7 6 6 6 5 5 5 5 6 7 7 8 8 8 9 9 9 10 10 10 10 11 12 12 13 14 18 17 16 16 16 15 16 15 16 16 15 14 14 15 15 16 17 17 18 18 17 18 17 17 17 15 15 16
7 7 8 8 9 9 8 8 9 10 10 10 9 9 9 9 9 9 9 10 9 8 6 6 5 5 6 7 7 8 8 9 8 7 7 6 6 6 6 6 6 7 7 8 9 9 9 9 9 9 9 10 10 10 10 11 12 13 14 15 15 14 15 14 14 14 13 14 14 15 14 14 14 14 14 15 16 18 17 16 16 16 16 16 17 16 16 16
7 7 7 8 8 8 9 9 9 9 10 10 10 10 10 10 10 10 10 10 9 7 6 5 5 6 7 8 9 9 10 13 10 6 7 6 5 6 6 7 8 8 9 9 9 9 9 9 9 10 10 11 11 11 11 11 12 14 15 14 13 14 14 13 13 12 12 12 13 14 14 14 13 13 13 14 16 16 15 13 13 13 14 14 15 16 16 16
8 8 8 8 9 10 11 11 10 10 10 11 11 11 11 11 11 11 11 9 9 8 6 5 6 6 8 8 9 9 11 14 9 6 7 6 6 7 7 8 9 9 10 10 10 10 10 9 9 10 11 12 14 13 13 13 12 15 15 12 13 14 13 14 13 11 12 12 13 14 14 13 13 13 13 13 14 13 13 12 13 13 13 13 14 15 16 16
8 9 10 11 10 11 11 12 11 11 12 12 12 12 12 12 12 11 10 9 9 8 7 6 7 7 8 9 9 9 8 10 8 6 7 7 7 8 9 10 11 11 11 10 10 11 10 10 11 11 12 14 15 14 15 14 13 16 16 13 12 13 12 13 12 11 12 12 13 13 13 13 13 14 13 12 13 12 12 12 13 14 14 14 14 15 16 16
9 10 11 11 11 11 11 12 12 12 13 13 13 13 13 13 12 11 10 10 9 8 7 7 7 7 8 8 9 9 8 8 7 7 7 8 9 10 11 11 12 12 12 12 11 11 11 11 12 11 14 16 15 16 15 15 16 17 16 13 11 12 12 13 12 11 11 12 13 13 13 13 13 14 12 12 12 11 12 12 12 13 13 13 14 14 16 17
10 10 10 11 11 11 11 12 13 13 14 13 13 13 13 12 12 12 11 10 8 8 7 7 8 8 8 8 9 11 9 7 7 8 9 10 11 12 13 13 14 13 13 13 12 12 11 11 12 11 13 14 15 16 15 16 19 17 14 12 11 12 12 12 12 12 11 12 12 13 14 13 13 13 12 11 11 10 11 11 12 13 13 13 13 13 14 16
10 11 11 12 11 12 13 14 14 14 14 14 14 13 13 12 12 12 11 10 8 7 7 7 8 9 8 8 10 11 9 9 10 11 12 13 14 14 14 14 14 13 13 12 11 11 11 11 12 11 12 13 14 15 14 16 18 14 13 12 12 12 12 12 12 12 12 12 12 13 14 13 12 13 13 10 9 10 10 11 11 12 13 13 13 13 13 14
12 13 13 14 14 14 15 15 15 15 15 14 14 14 13 13 13 12 11 9 7 8 8 8 9 10 9 7 9 11 11 13 14 15 16 15 15 15 14 13 12 11 11 11 10 10 10 10 11 11 13 13 13 14 13 14 15 13 13 14 14 12 12 13 12 12 13 12 12 13 13 13 13 13 13 9 8 10 10 10 11 11 12 12 13 13 13 13
14 15 15 15 15 15 15 15 15 15 14 14 14 14 14 14 14 13 11 9 9 8 8 8 9 10 10 9 11 14 15 16 16 17 17 15 15 14 13 12 11 10 10 10 9 9 9 10 9 11 13 13 13 15 13 13 14 13 14 17 21 17 14 14 12 12 13 13 12 13 13 13 14 14 10 8 8 10 11 10 11 11 12 12 13 13 13 13
16 16 16 15 15 16 15 15 15 15 15 15 15 15 15 14 13 12 11 11 10 9 8 9 11 13 14 15 16 17 17 17 16 16 15 14 13 13 12 11 10 9 9 8 8 8 8 9 9 10 12 12 14 13 11 12 14 16 18 18 20 20 19 15 12 13 12 12 12 13 15 12 13 13 9 9 9 10 11 10 11 11 11 12 13 13 13 13
17 17 17 17 17 16 16 16 15 15 15 14 15 14 14 13 13 13 12 12 11 10 12 15 18 18 17 17 18 17 16 15 14 14 13 12 11 11 10 10 9 9 9 9 8 8 8 9 9 10 10 10 11 11 12 14 15 20 20 20 19 17 21 17 12 14 14 13 12 14 18 13 10 11 9 9 10 10 11 10 11 11 11 12 12 13 14 14
19 19 19 19 18 17 17 16 15 14 14 14 14 14 14 13 13 14 14 14 15 16 18 19 21 20 17 17 16 15 14 12 12 12 11 10 10 10 9 9 9 9 9 9 8 8 8 9 9 9 9 10 12 14 18 17 17 20 17 21 22 16 20 19 13 15 14 15 13 15 21 16 10 11 9 9 9 11 12 11 12 12 12 13 13 14 14 15
19 19 19 19 18 17 16 15 15 14 14 14 15 15 15 15 16 17 18 18 18 19 19 19 19 18 16 14 13 12 11 11 10 10 9 9 9 8 9 8 9 9 9 9 9 9 9 9 10 10 12 14 16 18 22 21 23 24 18 19 21 17 20 19 15 16 16 18 18 18 22 18 12 10 9 10 11 13 13 12 12 12 13 14 14 15 15 16
18 18 18 18 17 17 17 17 17 18 18 18 18 19 19 19 19 19 19 18 17 17 17 17 15 15 13 12 11 11 10 10 10 9 9 9 8 9 9 8 9 9 9 10 10 10 11 11 11 12 15 18 20 21 20 22 25 28 25 22 22 21 22 21 20 20 19 21 22 22 23 18 14 12 11 13 14 13 13 12 12 13 14 15 16 16 17 18
18 18 19 19 19 20 21 21 21 21 21 21 21 20 20 19 18 17 16 16 15 16 17 15 14 15 13 10 10 10 10 10 10 10 9 9 9 10 9 10 10 10 10 10 10 11 12 13 14 19 22 21 24 23 18 19 24 26 27 27 26 26 24 24 24 22 22 24 24 24 24 19 15 13 13 14 14 13 14 13 12 13 14 16 17 18 19 20
20 21 21 21 22 22 22 22 21 20 20 19 18 18 17 16 15 13 13 13 13 15 15 13 13 14 12 10 10 10 11 11 11 10 9 10 10 10 11 11 10 11 12 12 13 13 14 19 21 23 26 24 24 24 20 22 25 26 28 28 28 28 27 25 23 24 24 25 25 24 24 20 15 14 14 14 14 15 15 14 12 14 15 18 19 20 20 20
21 21 20 20 20 20 19 19 18 17 17 16 16 17 17 15 14 12 11 12 12 13 13 12 12 12 11 11 11 11 11 11 11 10 10 10 10 10 12 11 12 14 15 16 17 16 19 26 25 23 25 25 23 24 24 25 26 27 29 29 29 28 27 23 22 27 26 24 26 24 22 20 16 15 15 15 17 17 17 15 14 16 17 20 21 21 22 23
18 17 17 17 17 16 16 15 15 15 14 14 14 15 15 15 16 14 12 12 13 13 13 12 12 12 12 11 11 11 11 11 11 10 10 10 11 12 12 14 17 17 18 18 18 19 23 25 23 22 24 22 22 24 24 25 26 28 29 28 28 28 26 22 23 28 26 24 24 21 20 18 16 17 17 18 21 21 19 17 18 19 19 20 19 19 21 22
15 15 15 15 15 14 14 14 14 13 13 13 13 13 13 14 15 14 14 14 13 13 12 12 12 12 12 12 12 12 11 11 12 12 12 12 13 15 15 17 20 19 20 22 21 24 26 23 22 22 21 22 25 25 24 24 26 27 28 27 26 26 26 24 25 26 24 22 19 19 21 19 19 22 22 23 24 23 20 19 21 20 19 20 20 19 19 19
15 14 14 14 14 14 14 14 14 13 13 13 13 13 13 13 13 13 14 15 14 14 13 13 12 12 13 13 13 14 13 14 14 13 13 13 14 17 17 17 21 22 22 23 23 22 23 22 22 21 20 23 24 24 25 25 25 25 24 25 24 25 26 25 24 23 22 23 21 22 22 19 22 24 24 23 21 21 21 20 20 19 20 23 22 20 19 19
15 15 15 15 15 15 15 15 15 15 14 14 14 14 13 14 14 14 14 16 17 16 15 15 14 13 14 15 16 16 15 15 15 13 13 14 14 17 17 18 22 23 22 23 23 21 21 21 20 21 22 22 21 23 25 22 22 23 22 23 24 24 24 24 25 23 21 24 25 25 23 21 24 25 25 24 20 21 22 21 21 21 23 25 23 20 20 21
15 15 16 16 16 16 16 16 16 16 15 15 15 14 15 15 15 15 17 19 18 16 17 16 15 15 15 16 17 17 17 16 15 14 14 14 15 16 17 17 19 20 21 23 22 20 21 19 18 21 22 21 21 21 21 19 20 22 22 22 21 22 23 25 28 25 23 25 26 29 31 30 27 27 27 26 23 24 24 24 24 24 25 25 22 20 20 21
16 16 16 16 16 16 16 16 16 16 16 17 16 17 16 16 17 16 20 25 21 17 17 16 16 16 15 15 16 17 17 16 14 14 14 15 14 15 17 16 15 17 17 18 17 16 19 20 19 20 19 21 23 21 20 19 18 20 21 21 22 23 24 26 27 26 28 29 27 30 36 34 27 23 25 26 25 26 27 27 27 26 26 24 22 22 22 22
16 16 16 16 16 16 16 16 16 16 17 16 17 17 16 16 17 16 22 27 22 17 16 16 15 15 15 15 14 15 15 13 12 13 14 14 12 13 16 15 15 16 15 16 16 15 18 22 21 21 21 22 22 19 19 17 17 19 21 22 23 24 24 26 26 27 30 30 30 32 33 34 30 24 24 25 26 27 29 30 30 28 26 24 23 24 24 24
14 15 15 16 16 16 16 17 16 16 16 15 16 16 15 17 16 18 25 24 17 16 17 16 15 13 14 14 12 12 14 12 11 12 12 11 10 11 14 14 14 17 17 15 13 13 19 22 21 20 20 20 19 18 18 17 17 20 22 23 23 23 24 25 25 27 29 29 32 33 33 35 34 28 27 27 28 30 31 32 32 28 25 25 26 27 27 26
13 14 14 15 15 15 16 16 16 15 15 15 15 15 15 16 16 22 26 19 14 17 16 15 14 12 12 13 12 11 13 13 11 12 11 9 8 9 13 13 12 16 17 14 13 16 20 19 18 19 19 19 20 20 20 17 18 21 22 22 22 23 25 24 24 25 28 32 34 32 31 33 32 28 28 30 30 30 30 31 30 27 26 26 28 31 31 29
13 13 13 14 14 15 15 15 14 14 14 14 15 15 15 16 22 28 25 17 16 16 15 13 12 12 13 16 15 11 13 13 10 11 10 8 7 7 10 10 11 16 17 16 18 20 20 18 17 19 20 19 20 21 20 19 20 20 22 22 20 23 27 25 25 25 25 30 32 29 26 30 33 31 31 31 29 27 28 29 28 27 26 25 27 30 30 28
14 13 14 14 14 14 14 14 14 14 13 13 14 14 14 18 24 25 19 15 17 16 14 14 14 14 16 17 14 11 14 13 9 11 12 12 10 8 10 11 12 17 17 16 17 19 22 22 19 19 18 17 19 21 21 23 22 19 22 22 17 21 26 25 27 27 23 24 28 28 25 27 34 34 32 31 29 31 31 27 27 28 25 25 27 26 26 26
14 13 13 13 13 13 14 14 14 13 12 13 13 13 17 21 19 18 17 16 16 15 14 15 16 17 17 17 13 12 15 13 11 13 14 17 17 14 15 16 16 15 13 14 15 16 21 22 20 20 18 17 18 18 19 23 23 19 22 22 23 29 28 25 31 30 22 21 20 23 25 26 29 30 28 28 29 35 34 28 26 27 24 25 25 24 23 25
13 13 13 13 12 12 12 12 11 11 11 11 11 14 20 21 15 14 17 16 13 14 14 15 19 18 16 14 13 13 14 13 12 13 14 18 19 18 19 19 19 15 12 17 17 15 19 21 20 18 17 18 18 16 16 19 20 19 22 24 31 39 33 31 38 32 25 22 15 17 27 28 27 26 25 25 28 32 31 27 26 24 23 24 23 21 22 22
12 12 11 11 10 10 10 10 9 10 11 10 13 17 18 16 14 15 17 17 15 16 16 17 19 19 14 11 12 14 13 12 13 14 15 17 18 19 19 18 19 17 16 19 17 16 19 18 16 16 15 17 20 18 16 18 20 21 22 23 28 34 32 34 38 33 29 28 20 18 24 26 25 22 20 22 27 29 26 24 24 23 22 22 20 20 21 21
10 10 10 9 9 9 9 9 8 9 10 9 14 19 17 13 15 17 18 20 18 16 17 18 17 16 14 13 15 14 10 11 15 16 16 17 19 20 19 18 20 19 19 18 17 18 20 17 16 16 15 16 19 19 18 19 20 20 22 24 27 29 28 32 34 30 30 34 31 24 21 22 20 16 17 20 23 26 24 22 22 21 20 20 19 19 20 20
9 9 9 9 9 9 9 10 9 9 10 9 12 16 16 14 15 16 17 18 17 15 17 19 16 14 15 15 15 14 11 11 14 16 16 18 20 20 20 21 20 20 19 18 19 21 20 19 18 16 15 16 18 20 22 19 17 19 22 22 23 26 29 32 31 29 32 38 35 26 21 21 19 16 18 19 18 19 20 20 18 18 18 18 18 19 19 20
9 9 9 9 9 9 9 9 9 9 6 9 14 15 16 16 16 18 18 16 16 16 17 17 13 12 13 14 13 14 14 14 14 15 15 17 19 19 21 22 20 20 19 19 21 22 21 21 19 15 13 15 18 20 23 21 17 19 21 21 23 28 33 33 31 37 42 40 31 23 23 26 25 23 20 17 16 16 16 18 18 17 18 17 18 19 20 21
9 8 8 8 8 8 8 8 9 7 5 10 18 18 17 18 16 16 17 16 17 18 17 15 13 11 13 13 13 15 16 16 15 15 16 17 19 19 22 23 20 21 21 20 21 23 22 21 19 16 12 14 19 20 22 24 23 21 20 23 23 24 30 32 33 41 46 43 38 31 28 28 28 28 23 18 19 18 16 19 20 20 19 19 21 22 23 24
8 7 7 8 7 7 7 7 6 5 6 13 20 18 17 18 16 14 16 16 18 18 15 14 13 13 14 13 14 17 18 16 15 16 17 16 17 20 23 23 21 22 22 22 22 23 23 19 17 17 14 14 17 18 19 23 25 25 25 27 26 24 28 31 31 37 43 48 51 44 35 30 26 26 24 18 19 20 21 22 22 23 23 23 25 26 28 29
8 7 7 7 7 6 5 5 4 7 11 15 18 17 16 18 16 15 15 16 17 16 13 14 15 15 16 16 16 18 19 17 16 16 16 16 17 20 24 25 26 26 24 23 23 23 22 20 18 16 15 15 14 16 18 18 21 25 25 25 27 27 29 29 30 34 41 49 55 52 43 28 18 20 20 18 21 23 24 24 23 24 25 27 30 32 33 33
7 7 7 6 6 6 4 5 7 13 18 19 18 18 17 17 16 15 15 16 16 14 13 15 17 18 18 17 18 17 18 19 18 17 17 17 16 19 24 26 30 30 25 21 22 20 19 21 21 19 16 14 12 15 18 17 19 22 22 23 27 29 30 31 34 36 37 41 45 47 44 27 15 17 17 18 23 24 24 25 24 24 26 31 35 36 37 36
6 7 7 5 6 5 4 9 13 15 19 19 17 18 17 16 16 14 14 15 15 15 14 15 18 19 18 17 19 20 20 20 20 18 17 17 17 19 22 24 28 30 24 20 20 18 18 21 23 21 17 13 13 16 18 19 20 22 23 25 28 31 32 34 39 38 36 37 38 43 47 31 15 16 18 20 24 24 25 26 26 28 30 35 39 40 40 40
6 7 5 4 5 4 5 12 16 16 18 17 15 15 16 15 15 14 15 15 14 14 15 16 17 17 17 17 19 21 20 18 18 17 16 17 19 20 20 20 24 27 24 20 20 18 19 21 22 21 18 14 14 17 18 19 21 21 22 24 26 31 34 37 40 39 39 41 39 45 50 34 16 17 20 21 23 24 26 29 30 32 35 39 42 42 43 43
4 5 5 6 6 5 8 14 16 18 19 16 15 15 15 13 13 15 17 16 16 16 17 17 17 17 18 20 21 20 18 15 15 17 16 16 18 19 18 18 21 24 22 19 20 18 18 21 22 23 23 18 14 15 16 17 19 18 19 24 27 30 36 39 40 42 46 44 40 47 50 31 17 19 21 22 25 27 28 31 33 37 42 44 44 44 46 47
4 5 5 5 4 5 10 12 14 18 20 18 16 15 16 14 12 15 16 15 16 18 18 17 17 18 20 21 21 20 18 15 14 16 16 15 18 20 18 18 22 25 23 20 21 20 20 23 23 24 26 23 21 22 20 19 21 19 19 23 26 29 34 36 40 47 50 46 43 47 45 31 21 24 26 27 32 34 33 35 39 43 47 48 48 50 53 54
6 7 7 6 5 6 9 8 9 14 18 20 18 15 16 16 13 15 17 15 15 16 16 17 17 19 21 21 21 21 20 17 16 17 16 16 19 20 20 20 22 23 22 21 21 23 25 26 26 27 28 25 23 23 21 24 27 26 24 24 24 28 33 36 44 48 47 48 47 41 40 39 33 31 35 41 47 48 46 48 51 49 48 48 52 55 57 58
7 9 11 10 7 7 10 9 9 12 14 16 15 13 16 17 14 15 16 14 14 14 16 18 18 19 20 19 20 21 20 19 18 16 16 18 21 20 20 22 22 21 22 22 23 25 26 25 26 29 29 25 23 23 23 27 29 29 29 27 24 28 33 37 42 41 41 53 53 38 37 43 40 43 52 57 58 56 55 60 61 58 58 61 63 65 66 67
8 10 10 9 8 10 13 11 10 12 12 14 16 15 17 18 16 15 13 13 14 14 15 17 18 21 22 19 18 19 20 20 19 17 17 20 23 22 22 24 23 22 23 23 25 26 25 26 28 29 28 26 25 25 26 29 30 30 31 29 28 30 32 34 36 35 39 53 52 40 39 44 50 59 62 59 61 63 66 72 73 72 75 76 76 78 80 80
7 8 8 8 8 10 12 11 9 11 13 15 17 17 18 20 18 15 15 15 16 15 15 14 15 21 25 23 20 19 19 18 17 18 19 20 21 23 25 23 21 23 24 25 27 25 23 29 31 28 27 26 24 26 28 31 33 30 28 29 30 31 31 33 36 39 43 48 47 45 47 51 59 66 64 63 68 73 77 82 82 82 84 84 84 87 89 90
6 6 6 8 9 9 10 10 10 12 15 16 16 15 18 21 19 18 17 16 15 15 16 15 15 21 25 24 21 19 18 17 16 18 21 21 22 24 23 21 21 25 27 26 28 24 22 28 32 29 27 24 22 25 29 31 34 30 27 30 31 30 30 32 37 43 47 49 50 52 57 62 62 63 65 67 71 76 82 86 87 87 88 88 87 86 86 86
5 5 5 7 10 10 9 9 11 17 19 18 16 16 18 20 20 19 18 16 14 15 16 16 18 23 25 23 21 21 19 19 19 19 19 20 22 24 23 23 26 29 30 30 29 27 25 29 32 32 30 23 19 23 27 28 29 29 29 30 30 31 35 37 42 48 50 54 57 59 64 68 64 63 68 71 75 81 83 83 86 89 89 86 82 79 77 76
5 6 5 7 10 11 11 11 14 16 15 15 18 18 17 17 19 19 17 14 14 15 16 16 19 23 23 20 20 19 18 19 20 20 20 21 24 25 27 29 30 31 32 31 30 30 30 31 32 35 35 25 19 24 28 27 27 27 28 30 33 38 42 42 45 51 53 58 65 69 72 74 73 76 82 83 82 82 79 79 85 88 87 81 76 71 69 66